GW1942 Weather Reports


time (UTC)temp
C
wind
direction
speed
KPH
gust
KPH
rain 1hr
cm
rain 24hr
cm
rain mn
cm
humidity
%
barometer
mb
20260507064503 13 44 4.8 17.7 0.03 0.08 0.03 78 1009.8
20260507063100 12 107 8.0 11.3 0.00 0.05 0.00 81 1010.2
20260507061554 12 101 4.8 12.9 0.00 0.05 0.00 81 1010.3
20260507060051 13 81 3.2 9.7 0.05 0.05 0.00 81 1010.2
20260507054602 13 319 0.0 9.7 0.05 0.05 0.05 81 1010.6
20260507053052 13 104 3.2 6.4 0.05 0.05 0.05 77 1010.0
20260507051549 15 100 3.2 4.8 0.03 0.03 0.03 68 1009.9
20260507050048 16 18 1.6 12.9 0.00 0.00 0.00 57 1009.7
20260507044549 15 98 6.4 9.7 0.00 0.00 0.00 61 1009.4
20260507043048 16 84 0.0 3.2 0.00 0.00 0.00 62 1009.6
20260507041546 16 265 1.6 8.0 0.00 0.00 0.00 60 1009.3
20260507040057 16 78 4.8 0.0 0.00 0.00 0.00 61 1009.3
20260507034554 16 78 4.8 12.9 0.00 0.00 0.00 60 1009.2
20260507033045 17 233 0.0 8.0 0.00 0.00 0.00 58 1009.3
20260507031544 17 62 4.8 8.0 0.00 0.00 0.00 57 1009.1
20260507030043 17 161 1.6 9.7 0.00 0.00 0.00 59 1009.1
20260507024543 17 92 1.6 3.2 0.00 0.00 0.00 60 1009.0
20260507023042 18 75 0.0 3.2 0.00 0.00 0.00 56 1008.8
20260507021545 20 269 0.0 1.6 0.00 0.00 0.00 51 1008.7
20260507020043 20 95 0.0 3.2 0.00 0.00 0.00 52 1008.5
20260507014540 20 202 0.0 4.8 0.00 0.00 0.00 45 1008.6
20260507013040 21 193 0.0 9.7 0.00 0.00 0.00 45 1008.6
20260507011540 21 39 1.6 4.8 0.00 0.00 0.00 44 1008.6
20260507010036 21 27 0.0 6.4 0.00 0.00 0.00 42 1008.9
20260507004535 22 8 0.0 4.8 0.00 0.00 0.00 40 1009.0
20260507003035 22 232 0.0 0.0 0.00 0.00 0.00 38 1009.0
20260507001546 22 274 0.0 4.8 0.00 0.00 0.00 37 1009.1
20260507000031 22 287 1.6 6.4 0.00 0.00 0.00 34 1009.2
20260506234541 23 309 3.2 0.0 0.00 0.00 0.00 34 1009.2
20260506233033 23 298 0.0 14.5 0.00 0.00 0.00 33 1009.2
20260506231534 23 276 0.0 11.3 0.00 0.00 0.00 34 1009.3
20260506230027 24 175 3.2 8.0 0.00 0.00 0.00 32 1009.4
20260506224529 24 2 3.2 11.3 0.00 0.00 0.00 29 1009.4
20260506223024 23 269 1.6 11.3 0.00 0.00 0.00 30 1009.7
20260506221523 23 195 1.6 6.4 0.00 0.00 0.00 30 1009.7
20260506220022 24 204 0.0 6.4 0.00 0.00 0.00 31 1009.8
20260506214520 24 102 1.6 6.4 0.00 0.00 0.00 30 1010.0
20260506213021 24 32 0.0 4.8 0.00 0.00 0.00 29 1010.3
20260506211517 23 197 0.0 4.8 0.00 0.00 0.00 32 1010.4
20260506210012 22 66 0.0 6.4 0.00 0.00 0.00 33 1010.7
20260506204508 22 59 6.4 9.7 0.00 0.00 0.00 30 1010.9
20260506203006 22 53 0.0 6.4 0.00 0.00 0.00 31 1011.1
20260506201502 21 278 1.6 3.2 0.00 0.00 0.00 32 1011.5
20260506200058 20 269 0.0 4.8 0.00 0.00 0.00 33 1011.8
20260506194556 19 39 1.6 6.4 0.00 0.00 0.00 34 1012.2
20260506193054 20 46 1.6 6.4 0.00 0.00 0.00 32 1012.5
20260506191553 19 309 1.6 6.4 0.00 0.00 0.00 33 1012.8
20260506190050 18 282 0.0 4.8 0.00 0.00 0.00 37 1013.2
20260506184553 17 281 1.6 8.0 0.00 0.00 0.00 37 1013.5
20260506183039 16 271 0.0 6.4 0.00 0.00 0.00 38 1013.9
20260506181538 16 356 0.0 6.4 0.00 0.00 0.00 36 1014.0
20260506180035 15 31 1.6 8.0 0.00 0.00 0.00 38 1014.4
20260506174529 14 42 3.2 8.0 0.00 0.00 0.00 38 1014.6
20260506173032 13 323 0.0 6.4 0.00 0.00 0.00 40 1014.9
20260506171524 13 62 1.6 8.0 0.00 0.00 0.00 38 1015.3
20260506170022 12 331 1.6 12.9 0.00 0.00 0.00 41 1015.5
20260506164517 11 301 0.0 4.8 0.00 0.00 0.00 42 1015.7
20260506163031 11 327 3.2 8.0 0.00 0.00 0.00 46 1015.8
20260506161515 11 39 0.0 1.6 0.00 0.00 0.00 48 1015.9
20260506160010 10 301 0.0 6.4 0.00 0.00 0.00 49 1016.2
20260506154522 9 250 0.0 3.2 0.00 0.00 0.00 51 1016.4
20260506153003 8 57 0.0 6.4 0.00 0.00 0.00 53 1016.6
20260506151559 8 321 0.0 3.2 0.00 0.00 0.00 56 1016.7
20260506150056 7 52 0.0 1.6 0.00 0.00 0.00 57 1016.9
20260506144555 6 65 1.6 3.2 0.00 0.00 0.00 58 1017.1
20260506143052 6 63 0.0 1.6 0.00 0.00 0.00 61 1017.2
20260506141550 6 86 0.0 1.6 0.00 0.00 0.00 62 1017.3
20260506140048 5 127 0.0 1.6 0.00 0.00 0.00 67 1017.6
20260506134544 3 134 0.0 1.6 0.00 0.00 0.00 70 1017.5
20260506133047 2 101 0.0 0.0 0.00 0.00 0.00 77 1017.5
20260506131543 0 163 0.0 0.0 0.00 0.00 0.00 82 1017.4
20260506130042 -1 163 0.0 0.0 0.00 0.00 0.00 87 1017.5
20260506124544 -1 163 0.0 1.6 0.00 0.00 0.00 87 1017.4
20260506123041 -1 152 0.0 0.0 0.00 0.00 0.00 87 1017.5
20260506121547 -1 153 0.0 0.0 0.00 0.00 0.00 87 1017.4
20260506120040 -1 153 0.0 0.0 0.00 0.00 0.00 84 1017.3
20260506114534 -1 153 0.0 0.0 0.00 0.00 0.00 85 1017.3
20260506113033 0 148 0.0 1.6 0.00 0.00 0.00 82 1017.4
20260506111534 -1 204 0.0 1.6 0.00 0.00 0.00 85 1017.5
20260506110029 -1 117 0.0 1.6 0.00 0.00 0.00 83 1017.5
20260506104527 0 139 0.0 0.0 0.00 0.00 0.00 83 1017.3
20260506103026 0 139 0.0 0.0 0.00 0.00 0.00 82 1017.2
20260506101524 0 111 0.0 1.6 0.00 0.00 0.00 80 1017.1
20260506100021 0 136 0.0 0.0 0.00 0.00 0.00 78 1017.2
20260506094520 0 123 0.0 1.6 0.00 0.00 0.00 77 1017.2
20260506093018 1 219 0.0 3.2 0.00 0.00 0.00 73 1017.2
20260506091515 1 148 0.0 1.6 0.00 0.00 0.00 74 1017.3
20260506090013 2 113 0.0 3.2 0.00 0.00 0.00 71 1017.3
20260506084511 1 85 0.0 4.8 0.00 0.00 0.00 73 1017.3
20260506083015 2 143 0.0 3.2 0.00 0.00 0.00 71 1017.2
20260506081505 2 198 0.0 4.8 0.00 0.00 0.00 69 1017.2
20260506073101 3 219 1.6 6.4 0.00 0.00 0.00 64 1017.2
20260506071558 4 203 1.6 6.4 0.00 0.00 0.00 62 1017.0